Weather History for St. Joseph, MO

Change the Weather History Date:

Thursday, November 1, 2012

  Actual Average Record
Temperature  
Mean Temperature 52 °F 49 °F  
Max Temperature 69 °F 60 °F 82 °F (1990)
Min Temperature 35 °F 37 °F 20 °F (1991)
Degree Days  
Heating Degree Days 13 16  
Month to date heating degree days 13 16  
Since 1 July heating degree days 514 435  
Cooling Degree Days 0 0  
Month to date cooling degree days 0 0  
Year to date cooling degree days 1560 1220  
Growing Degree Days 2 (Base 50)    
Moisture  
Dew Point 37 °F    
Average Humidity 62    
Maximum Humidity 89    
Minimum Humidity 35    
Precipitation  
Precipitation 0.00 in 0.08 in 2.13 in (1971)
Month to date precipitation 0.00 0.08  
Year to date precipitation 20.52 32.61  
Sea Level Pressure  
Sea Level Pressure 29.97 in    
Wind  
Wind Speed 6 mph (NNW)    
Max Wind Speed 18 mph    
Max Gust Speed 22 mph    
Visibility 9 miles    
Events      
T = Trace of Precipitation, MM = Missing Value Source: NWS Daily Summary

Daily Weather History Graph

Daily Weather History Graph

Search for Another Location

Airport:

Trip Planner

Search our weather history database for the weather conditions in past years. The results will help you decide how hot, cold, wet, or windy it might be!

Date:

Astronomy

Nov. 01, 2012 Rise Set
Actual Time 7:48 AM CDT 6:16 PM CDT
Civil Twilight 7:20 AM CDT 6:44 PM CDT
Nautical Twilight 6:48 AM CDT 7:16 PM CDT
Astronomical Twilight 6:17 AM CDT 7:48 PM CDT
Moon 8:15 PM CDT (11/1) 10:21 AM CDT (11/1)
Length of Visible Light 11h 24m
Length of Day
10h 28m
Waning Gibbous, 93% of the Moon is Illuminated
Nov 1
Waning Gibbous
Nov 6
Last Quarter
Nov 13
New
Nov 20
First Quarter
Nov 28
Full

Hourly Weather History & Observations

Time (CDT) Temp. Dew Point Humidity Pressure Visibility Wind Dir Wind Speed Gust Speed Precip Events Conditions
12:53 AM 36.0 °F 30.0 °F 79% 30.02 in 8.0 mi Calm Calm - N/A   Clear
1:53 AM 36.0 °F 30.9 °F 82% 30.01 in 8.0 mi Calm Calm - N/A   Clear
2:53 AM 39.9 °F 35.1 °F 83% 30.00 in 7.0 mi Calm Calm - N/A   Clear
3:53 AM 41.0 °F 35.1 °F 79% 29.99 in 6.0 mi Calm Calm - N/A   Haze
4:53 AM 42.1 °F 35.1 °F 76% 29.99 in 7.0 mi Calm Calm - N/A   Clear
5:53 AM 39.0 °F 34.0 °F 82% 30.00 in 6.0 mi Calm Calm - N/A   Haze
7:53 AM 35.1 °F 32.0 °F 89% 30.00 in 5.0 mi Calm Calm - N/A   Clear
8:53 AM 41.0 °F 36.0 °F 82% 30.01 in 6.0 mi Calm Calm - N/A   Haze
9:53 AM 48.0 °F 37.0 °F 66% 29.99 in 10.0 mi South 4.6 mph - N/A   Clear
10:53 AM 57.0 °F 37.9 °F 49% 29.96 in 10.0 mi SSE 6.9 mph - N/A   Clear
11:53 AM 64.0 °F 39.0 °F 40% 29.94 in 10.0 mi SW 8.1 mph - N/A   Clear
12:53 PM 66.9 °F 39.9 °F 37% 29.92 in 10.0 mi WNW 16.1 mph - N/A   Clear
1:53 PM 66.9 °F 39.9 °F 37% 29.91 in 10.0 mi NW 16.1 mph - N/A   Clear
2:53 PM 66.9 °F 39.9 °F 37% 29.91 in 10.0 mi NNW 11.5 mph - N/A   Clear
4:53 PM 68.0 °F 39.9 °F 36% 29.90 in 10.0 mi North 10.4 mph - N/A   Clear
5:53 PM 64.0 °F 39.0 °F 40% 29.91 in 10.0 mi NNW 9.2 mph - N/A   Clear
6:53 PM 53.1 °F 37.9 °F 57% 29.94 in 10.0 mi North 8.1 mph - N/A   Clear
7:53 PM 53.1 °F 37.9 °F 57% 29.95 in 10.0 mi North 9.2 mph - N/A   Clear
8:53 PM 50.0 °F 39.0 °F 66% 29.96 in 10.0 mi North 6.9 mph - N/A   Clear
9:53 PM 50.0 °F 39.0 °F 66% 29.97 in 10.0 mi NNE 9.2 mph - N/A   Clear
10:53 PM 48.0 °F 39.0 °F 71% 29.97 in 9.0 mi NNE 6.9 mph - N/A   Clear
11:53 PM 46.9 °F 37.9 °F 71% 29.98 in 9.0 mi NNE 5.8 mph - N/A   Clear